Location: Cornospital
(48.0620°N, 3.3837°W)
Time: 20:12:47
(UTC+00:00)

Cosmos 1461 - Pass Details

Date: 17 June 2021
Orbit: 513 x 649 km, 65.0° (Epoch: 03 August)

Event Time Altitude Azimuth Distance (km) Brightness Sun altitude
Rises 21:26:29 0° 321° (NW) 2,827 8.9 -9.2°
Reaches altitude 10° 21:28:47 10° 321° (NW) 1,899 7.3 -9.4°
Maximum altitude 21:33:03 85° 234° (SW) 568 2.9 -9.9°
Enters shadow 21:36:27 15° 146° (SE) 1,544 4.4 -10.2°
